H1 CPF 2 COD 2024 4 30 1 121 1 galileo215 NONE
H2 1707901 7215 43055 2024 4 29 23 59 42 2024 5 4 23 59 42 900 1 1 0 0 0 1
H5 0.5555
H9
10 0 60431  37782.000000  0  -10080397.884 -24070869.789  13965973.986
10 0 60431  38682.000000  0   -9133626.367 -23094752.959  16101411.442
10 0 60431  39582.000000  0   -7980802.023 -22068397.830  18036539.096
10 0 60431  40482.000000  0   -6627023.915 -21026916.781  19747281.120
10 0 60431  41382.000000  0   -5083582.252 -20004469.173  21212353.316
10 0 60431  42282.000000  0   -3367670.421 -19033187.775  22413527.912
10 0 60431  43182.000000  0   -1501912.193 -18142171.741  23335860.267
10 0 60431  44082.000000  0     486281.209 -17356577.699  23967874.694
10 0 60431  44982.000000  0    2565504.175 -16696837.404  24301707.139
10 0 60431  45882.000000  0    4701275.197 -16178026.449  24333202.967
10 0 60431  46782.000000  0    6857052.182 -15809403.753  24061968.668
10 0 60431  47682.000000  0    8995312.919 -15594136.252  23491376.839
10 0 60431  48582.000000  0   11078667.046 -15529217.356  22628524.397
10 0 60431  49482.000000  0   13070964.821 -15605581.719  21484144.493
10 0 60431  50382.000000  0   14938368.116 -15808412.680  20072473.220
10 0 60431  51282.000000  0   16650350.233 -16117632.730  18411072.712
10 0 60431  52182.000000  0   18180593.316 -16508561.593  16520612.798
10 0 60431  53082.000000  0   19507755.354 -16952721.252  14424613.887
10 0 60431  53982.000000  0   20616082.839 -17418762.642  12149154.246
10 0 60431  54882.000000  0   21495849.946 -17873484.889   9722545.304
10 0 60431  55782.000000  0   22143610.549 -18282915.056   7174979.012
10 0 60431  56682.000000  0   22562255.277 -18613414.436   4538151.674
10 0 60431  57582.000000  0   22760871.877 -18832776.611   1844868.962
10 0 60431  58482.000000  0   22754413.388 -18911282.707   -871362.904
10 0 60431  59382.000000  0   22563184.636 -18822680.666  -3576754.674
10 0 60431  60282.000000  0   22212163.273 -18545057.693  -6237655.002
10 0 60431  61182.000000  0   21730176.774 -18061578.458  -8820969.501
10 0 60431  62082.000000  0   21148961.339 -17361065.804 -11294572.639
10 0 60431  62982.000000  0   20502132.312 -16438405.718 -13627707.317
10 0 60431  63882.000000  0   19824098.512 -15294763.813 -15791367.126
10 0 60431  64782.000000  0   19148954.584 -13937606.506 -17758656.547
10 0 60431  65682.000000  0   18509386.144 -12380526.204 -19505124.632
10 0 60431  66582.000000  0   17935622.046 -10642875.925 -21009068.079
10 0 60431  67482.000000  0   17454466.616  -8749224.764 -22251800.006
10 0 60431  68382.000000  0   17088442.118  -6728651.169 -23217881.165
10 0 60431  69282.000000  0   16855068.299  -4613896.062 -23895310.825
10 0 60431  70182.000000  0   16766301.502  -2440402.191 -24275675.025
10 0 60431  71082.000000  0   16828150.878   -245269.613 -24354250.459
10 0 60431  71982.000000  0   17040483.672   1933840.186 -24130062.735
10 0 60431  72882.000000  0   17397025.655   4059817.424 -23605898.343
10 0 60431  73782.000000  0   17885556.702   6097199.801 -22788270.179
10 0 60431  74682.000000  0   18488295.398   8013216.827 -21687337.035
10 0 60431  75582.000000  0   19182460.678   9778750.214 -20316778.024
10 0 60431  76482.000000  0   19940992.984  11369180.439 -18693623.413
10 0 60431  77382.000000  0   20733412.364  12765093.119 -16838043.903
10 0 60431  78282.000000  0   21526786.748  13952823.221 -14773100.872
10 0 60431  79182.000000  0   22286780.096  14924820.164 -12524460.626
10 0 60431  80082.000000  0   22978747.558  15679822.392 -10120076.090
10 0 60431  80982.000000  0   23568843.447  16222836.107  -7589839.894
10 0 60431  81882.000000  0   24025107.141  16564918.747  -4965213.077
10 0 60431  82782.000000  0   24318492.826  16722774.100  -2278834.007
10 0 60431  83682.000000  0   24423810.768  16718171.803    435887.579
10 0 60431  84582.000000  0   24320550.523  16577209.491   3145186.366
10 0 60431  85482.000000  0   23993560.172  16329440.790   5815361.821
10 0 60431  86382.000000  0   23433560.111  16006896.577   8413197.901
10 0 60432    882.000000  0   22637475.231  15643030.313  10906376.778
10 0 60432   1782.000000  0   21608574.935  15271620.628  13263881.392
10 0 60432   2682.000000  0   20356416.537  14925665.669  15456381.780
10 0 60432   3582.000000  0   18896593.722  14636304.008  17456600.323
10 0 60432   4482.000000  0   17250297.855  14431796.035  19239651.352
10 0 60432   5382.000000  0   15443705.837  14336597.865  20783350.885
10 0 60432   6282.000000  0   13507213.580  14370556.864  22068492.660
10 0 60432   7182.000000  0   11474539.052  14548254.088  23079087.041
10 0 60432   8082.000000  0    9381722.878  14878514.301  23802559.871
10 0 60432   8982.000000  0    7266057.682  15364098.978  24229908.834
10 0 60432   9882.000000  0    5164979.601  16001591.971  24355815.415
10 0 60432  10782.000000  0    3114956.528  16781481.482  24178711.081
10 0 60432  11682.000000  0    1150407.777  17688435.818  23700796.892
10 0 60432  12582.000000  0    -697311.160  18701764.361  22928016.279
10 0 60432  13482.000000  0   -2400827.096  19796049.373  21869981.326
10 0 60432  14382.000000  0   -3937542.254  20941928.889  20539853.430
10 0 60432  15282.000000  0   -5290277.272  22107006.240  18954179.796
10 0 60432  16182.000000  0   -6447744.102  23256857.729  17132687.749
10 0 60432  17082.000000  0   -7404834.068  24356106.922  15098039.387
10 0 60432  17982.000000  0   -8162712.207  25369531.884  12875549.580
10 0 60432  18882.000000  0   -8728715.006  26263170.643  10492870.816
10 0 60432  19782.000000  0   -9116054.878  27005390.217   7979648.797
10 0 60432  20682.000000  0   -9343340.754  27567885.618   5367153.089
10 0 60432  21582.000000  0   -9433929.948  27926577.494   2687887.464
10 0 60432  22482.000000  0   -9415131.773  28062380.193    -24815.186
10 0 60432  23382.000000  0   -9317288.028  27961816.135  -2737208.234
10 0 60432  24282.000000  0   -9172759.349  27617457.187  -5415551.784
10 0 60432  25182.000000  0   -9014849.371  27028179.194  -8026532.901
10 0 60432  26082.000000  0   -8876700.589  26199221.674 -10537680.320
10 0 60432  26982.000000  0   -8790196.680  25142050.829 -12917768.421
10 0 60432  27882.000000  0   -8784905.809  23874030.179 -15137205.424
10 0 60432  28782.000000  0   -8887098.157  22417909.162 -17168400.963
10 0 60432  29682.000000  0   -9118868.516  20801145.741 -18986108.503
10 0 60432  30582.000000  0   -9497391.510  19055084.234 -20567738.363
10 0 60432  31482.000000  0  -10034332.811  17214014.092 -21893637.560
10 0 60432  32382.000000  0  -10735434.802  15314139.042 -22947333.038
10 0 60432  33282.000000  0  -11600289.710  13392488.787 -23715735.379
10 0 60432  34182.000000  0  -12622307.316  11485807.204 -24189300.541
10 0 60432  35082.000000  0  -13788878.312   9629451.703 -24362147.705
10 0 60432  35982.000000  0  -15081728.251   7856338.018 -24232131.821
10 0 60432  36882.000000  0  -16477451.097   6195963.279 -23800870.012
10 0 60432  37782.000000  0  -17948205.774   4673537.762 -23073721.519
10 0 60432  38682.000000  0  -19462554.045   3309252.310 -22059721.420
10 0 60432  39582.000000  0  -20986413.620   2117704.205 -20771468.931
10 0 60432  40482.000000  0  -22484096.805   1107499.329 -19224971.591
10 0 60432  41382.000000  0  -23919402.275    281042.954 -17439447.216
10 0 60432  42282.000000  0  -25256725.932   -365474.370 -15437085.985
10 0 60432  43182.000000  0  -26462156.141   -841895.466 -13242775.529
10 0 60432  44082.000000  0  -27504519.044  -1163725.439 -10883792.356
10 0 60432  44982.000000  0  -28356341.396  -1351582.533  -8389463.420
10 0 60432  45882.000000  0  -28994700.606  -1430488.172  -5790801.940
10 0 60432  46782.000000  0  -29401935.275  -1429018.532  -3120121.986
10 0 60432  47682.000000  0  -29566194.058  -1378344.304   -410636.638
10 0 60432  48582.000000  0  -29481805.550  -1311188.852   2303955.267
10 0 60432  49482.000000  0  -29149457.567  -1260737.538   4989888.605
10 0 60432  50382.000000  0  -28576180.125  -1259532.523   7613752.410
10 0 60432  51282.000000  0  -27775132.602  -1338387.879  10142905.986
10 0 60432  52182.000000  0  -26765201.755  -1525359.138  12545885.454
10 0 60432  53082.000000  0  -25570423.155  -1844799.751  14792795.628
10 0 60432  53982.000000  0  -24219244.168  -2316534.184  16855682.300
10 0 60432  54882.000000  0  -22743651.585  -2955173.700  18708880.278
10 0 60432  55782.000000  0  -21178191.208  -3769596.404  20329332.850
10 0 60432  56682.000000  0  -19558910.107  -4762607.979  21696878.689
10 0 60432  57582.000000  0  -17922254.668  -5930793.845  22794502.672
10 0 60432  58482.000000  0  -16303958.877  -7264567.494  23608547.514
10 0 60432  59382.000000  0  -14737957.639  -8748413.608  24128883.628
10 0 60432  60282.000000  0  -13255359.068 -10361318.448  24349035.115
10 0 60432  61182.000000  0  -11883507.871 -12077374.170  24266260.372
10 0 60432  62082.000000  0  -10645169.058 -13866538.260  23881586.300
10 0 60432  62982.000000  0   -9557857.455 -15695524.431  23199795.707
10 0 60432  63882.000000  0   -8633333.928 -17528797.208  22229368.043
10 0 60432  64782.000000  0   -7877284.001 -19329639.179  20982374.174
10 0 60432  65682.000000  0   -7289188.869 -21061257.576  19474326.469
10 0 60432  66582.000000  0   -6862392.736 -22687895.636  17723986.025
10 0 60432  67482.000000  0   -6584364.311 -24175913.992  15753129.371
10 0 60432  68382.000000  0   -6437144.166 -25494808.277  13586277.535
10 0 60432  69282.000000  0   -6397963.844 -26618131.090  11250390.802
10 0 60432  70182.000000  0   -6440017.199 -27524289.472   8774532.963
10 0 60432  71082.000000  0   -6533359.677 -28197192.914   6189509.231
10 0 60432  71982.000000  0   -6645907.196 -28626731.603   3527482.368
10 0 60432  72882.000000  0   -6744503.176 -28809069.951    821571.842
10 0 60432  73782.000000  0   -6796020.078 -28746746.238  -1894558.939
10 0 60432  74682.000000  0   -6768460.797 -28448575.300  -4587122.105
99